Northport, AL

9:56 AM CDT on September 30, 2016 (GMT -0500)
Tuscaloosa Municipal

Weather History for KTCL - March, 2013

Change the Weather History Date:

Friday, March 29, 2013

  Actual Average Record
Temperature  
Mean Temperature 57 °F 59 °F  
Max Temperature 75 °F 72 °F 87 °F (2007)
Min Temperature 39 °F 46 °F 30 °F (1955)
Degree Days  
Heating Degree Days 8 7  
Month to date heating degree days 407 280  
Since 1 July heating degree days 2259 2370  
Growing Degree Days 6 (Base 50)    
Moisture  
Dew Point 40 °F    
Average Humidity 56    
Maximum Humidity 85    
Minimum Humidity 27    
Precipitation  
Precipitation T in 0.15 in 2.08 in (1976)
Month to date precipitation 4.01 4.26  
Year to date precipitation 14.78 14.93  
Sea Level Pressure  
Sea Level Pressure 30.24 in    
Wind  
Wind Speed 3 mph (SSW)    
Max Wind Speed 15 mph    
Max Gust Speed 33 mph    
Visibility 10 miles    
Events      
T = Trace of Precipitation, MM = Missing Value Source: NWS Daily Summary

Daily Weather History Graph

Daily Weather History Graph

Search for Another Location

Airport or City:

Trip Planner

Search our weather history database for the weather conditions in past years. The results will help you decide how hot, cold, wet, or windy it might be!

Date:

Astronomy

Mar. 29, 2013 Rise Set
Actual Time 6:41 AM CDT 7:08 PM CDT
Civil Twilight 6:16 AM CDT 7:33 PM CDT
Nautical Twilight 5:47 AM CDT 8:02 PM CDT
Astronomical Twilight 5:18 AM CDT 8:32 PM CDT
Moon 9:57 PM CDT (3/29) 7:59 AM CDT (3/29)
Length of Visible Light 13h 16m
Length of Day
12h 26m
Waning Gibbous, 93% of the Moon is Illuminated
Mar 29
Waning Gibbous
Apr 2
Last Quarter
Apr 10
New
Apr 18
First Quarter
Apr 25
Full

Hourly Weather History & Observations

Time (CDT) Temp. Windchill Dew Point Humidity Pressure Visibility Wind Dir Wind Speed Gust Speed Precip Events Conditions
12:53 AM 45.0 °F - 37.9 °F 76% 30.31 in 10.0 mi Calm Calm - N/A   Clear
1:53 AM 43.0 °F - 36.0 °F 76% 30.30 in 10.0 mi Calm Calm - N/A   Clear
2:53 AM 42.1 °F - 36.0 °F 79% 30.29 in 10.0 mi Calm Calm - N/A   Clear
3:53 AM 41.0 °F - 35.1 °F 79% 30.27 in 10.0 mi Calm Calm - N/A   Clear
4:53 AM 39.9 °F - 35.1 °F 83% 30.27 in 10.0 mi Calm Calm - N/A   Clear
5:53 AM 42.1 °F 40.2 °F 37.9 °F 85% 30.29 in 10.0 mi ENE 3.5 mph - N/A   Clear
6:53 AM 42.1 °F 40.2 °F 37.9 °F 85% 30.30 in 10.0 mi NNE 3.5 mph - N/A   Clear
7:53 AM 46.9 °F - 39.0 °F 74% 30.31 in 10.0 mi Calm Calm - N/A   Clear
8:53 AM 53.1 °F - 39.9 °F 61% 30.32 in 10.0 mi Calm Calm - N/A   Clear
9:53 AM 57.0 °F - 39.0 °F 51% 30.32 in 10.0 mi Calm Calm - N/A   Clear
10:53 AM 62.1 °F - 39.9 °F 44% 30.31 in 10.0 mi SE 3.5 mph - N/A   Clear
11:53 AM 68.0 °F - 39.0 °F 35% 30.28 in 10.0 mi South 4.6 mph - N/A   Clear
12:53 PM 70.0 °F - 37.9 °F 31% 30.25 in 10.0 mi SSE 8.1 mph - N/A   Clear
1:53 PM 73.0 °F - 37.0 °F 27% 30.22 in 10.0 mi SSW 9.2 mph - N/A   Clear
2:53 PM 73.9 °F - 37.0 °F 26% 30.19 in 10.0 mi SSW 8.1 mph 18.4 mph N/A   Clear
3:53 PM 73.0 °F - 37.0 °F 27% 30.17 in 10.0 mi Variable 5.8 mph - N/A   Scattered Clouds
4:53 PM 73.0 °F - 37.0 °F 27% 30.16 in 10.0 mi SW 9.2 mph - N/A   Partly Cloudy
5:53 PM 71.1 °F - 37.9 °F 30% 30.16 in 10.0 mi WSW 6.9 mph - N/A   Overcast
6:53 PM 66.9 °F - 45.0 °F 45% 30.18 in 10.0 mi NW 9.2 mph - N/A   Overcast
7:53 PM 64.9 °F - 46.0 °F 50% 30.18 in 10.0 mi WNW 3.5 mph - N/A   Overcast
8:53 PM 63.0 °F - 46.9 °F 56% 30.18 in 10.0 mi Calm Calm - N/A   Overcast
9:53 PM 62.1 °F - 48.0 °F 60% 30.19 in 10.0 mi Calm Calm - N/A   Overcast
10:53 PM 60.1 °F - 50.0 °F 69% 30.19 in 10.0 mi Calm Calm - N/A   Overcast
11:53 PM 57.9 °F - 50.0 °F 75% 30.19 in 10.0 mi Calm Calm - N/A   Overcast